CST,Max TemperatureF,Mean TemperatureF,Min TemperatureF,Max Dew PointF,MeanDew PointF,Min DewpointF,Max Humidity, Mean Humidity, Min Humidity, Max Sea Level PressureIn, Mean Sea Level PressureIn, Min Sea Level PressureIn, Max VisibilityMiles, Mean VisibilityMiles, Min VisibilityMiles, Max Wind SpeedMPH, Mean Wind SpeedMPH, Max Gust SpeedMPH,PrecipitationIn, CloudCover, Events, WindDirDegrees
2013-1-1,23,13,3,20,14,0,91,88,84,30.25,30.11,29.95,10,9,5,18,6,24,0.00,6,Snow,218
2013-1-2,32,22,11,27,19,8,91,85,73,30.21,29.99,29.90,10,10,4,20,11,29,0.00,6,Snow,287
2013-1-3,24,14,4,19,11,0,87,82,76,30.32,30.21,30.03,10,10,5,29,13,38,0.00,2,Snow,268
2013-1-4,30,23,16,20,15,10,80,71,61,30.11,30.06,30.00,10,10,5,30,13,38,0.00,0,,247
2013-1-5,26,16,6,19,11,3,93,80,70,30.13,29.98,29.89,10,10,10,23,7,28,0.00,1,,290
2013-1-6,30,20,10,21,13,7,93,81,67,30.22,30.10,29.82,10,10,10,21,8,32,0.00,1,,218
2013-1-7,36,32,27,26,24,21,81,72,64,29.95,29.89,29.80,10,10,10,22,14,31,0.00,1,,242
2013-1-8,36,26,16,30,24,14,93,80,67,29.96,29.82,29.69,10,10,10,22,7,28,0.00,3,,212
2013-1-9,39,32,24,30,25,20,91,75,64,30.29,30.16,29.96,10,10,10,25,14,33,0.00,0,,222
2013-1-10,40,36,33,34,29,22,97,74,47,30.12,29.91,29.57,10,9,5,28,19,44,0.05,3,Rain,171
2013-1-11,36,28,19,36,32,17,100,97,88,29.56,29.44,29.34,10,5,1,18,7,24,0.00,8,Rain,169
2013-1-12,19,11,3,16,3,-1,88,78,71,30.12,29.92,29.52,10,8,2,25,18,33,0.00,6,Snow,320
2013-1-13,12,7,2,6,1,-4,83,76,64,30.24,30.16,30.09,10,10,7,16,12,24,0.00,5,,320
2013-1-14,15,8,0,10,3,-4,87,79,69,30.39,30.29,30.22,10,10,10,14,7,20,0.00,3,Snow,304
2013-1-15,28,18,10,18,9,5,80,69,56,30.22,30.03,29.74,10,10,10,28,11,38,0.00,1,,213
2013-1-16,37,20,3,33,19,-5,93,81,57,30.28,29.92,29.67,10,10,1,22,15,30,0.00,5,Snow,288
2013-1-17,27,14,1,22,10,-6,91,78,65,30.39,30.33,30.14,10,10,10,14,5,20,0.00,6,,16
2013-1-18,39,29,19,32,28,17,96,79,65,30.12,29.83,29.74,10,10,10,23,11,31,0.00,1,,241
2013-1-19,38,20,2,32,19,-4,85,77,69,30.33,29.97,29.70,10,10,10,33,14,43,0.00,3,Snow,292
2013-1-20,10,4,-4,4,-3,-14,84,74,64,30.42,30.36,30.32,10,9,2,25,11,34,0.00,4,Snow,298
2013-1-21,2,-4,-9,-7,-12,-17,75,68,62,30.39,30.34,30.29,10,10,10,20,14,28,0.00,0,,285
2013-1-22,14,3,-8,10,-4,-13,87,74,56,30.35,30.28,30.16,10,10,2,9,4,,0.00,4,Snow,216
2013-1-23,15,4,-8,12,0,-16,88,77,64,30.61,30.34,30.13,10,9,2,20,8,26,0.00,3,Snow,331
2013-1-24,14,3,-8,6,-5,-17,75,69,62,30.62,30.37,30.06,10,10,10,20,8,23,0.00,3,,141
2013-1-25,22,11,0,19,4,-4,85,73,59,30.31,30.14,29.98,10,10,2,26,13,33,0.00,3,Snow,300
2013-1-26,24,12,-1,16,5,-5,90,80,67,30.30,30.13,29.96,10,10,10,15,4,,0.00,0,,122
2013-1-27,32,22,11,32,22,9,100,93,84,29.95,29.82,29.74,10,6,0,9,2,,0.00,5,Fog,120
2013-1-28,37,34,31,35,33,32,100,98,91,29.83,29.76,29.63,10,4,0,9,2,,0.00,8,Fog-Rain,326
2013-1-29,31,26,20,32,24,17,100,94,81,29.85,29.72,29.61,10,6,1,0,0,,0.00,7,Snow,-1
2013-1-30,20,8,-4,17,6,-11,91,82,74,29.89,29.84,29.81,10,8,2,0,0,,0.00,6,Snow,-1
2013-1-31,-4,-7,-10,-10,-14,-18,77,71,65,30.32,30.16,29.90,10,10,2,0,0,,0.00,2,,-1